Date,TemperatureHighF,TemperatureAvgF,TemperatureLowF,DewpointHighF,DewpointAvgF,DewpointLowF,HumidityHigh,HumidityAvg,HumidityLow,PressureMaxIn,PressureMinIn,WindSpeedMaxMPH,WindSpeedAvgMPH,GustSpeedMaxMPH,PrecipitationSumIn
2013-2-1,34,20,12,29,12,2,93,71,50,30.48,29.95,13,4,16,0.00
2013-2-2,27,20,10,26,17,8,94,89,61,30.47,30.17,5,0,9,0.01
2013-2-3,34,30,27,30,27,20,94,87,71,30.19,29.99,9,4,15,0.07
2013-2-4,38,28,14,28,22,12,92,79,52,30.23,30.06,5,0,7,0.17
2013-2-5,32,32,31,30,29,28,91,89,88,30.06,30.02,1,0,2,0.00
2013-2-6,49,36,27,34,30,26,95,80,49,30.33,30.08,5,1,2,0.00
2013-2-7,50,38,28,39,33,26,94,82,61,30.33,30.05,5,1,7,0.00
2013-2-8,49,40,34,43,35,27,95,83,65,30.27,29.96,11,4,15,0.13
2013-2-9,48,34,25,27,24,20,90,68,34,30.41,30.27,8,2,10,0.00
2013-2-10,58,40,24,39,27,16,94,68,19,30.42,30.11,8,2,14,0.12
2013-2-11,54,46,37,50,43,32,96,90,69,30.11,30.00,6,1,8,0.11
2013-2-12,52,41,29,35,29,24,90,64,37,30.20,29.96,7,2,9,0.00
2013-2-13,46,39,35,43,36,31,94,89,82,29.98,29.65,11,2,13,0.35
2013-2-14,47,36,27,32,29,25,93,78,53,30.13,29.97,6,2,10,0.00
2013-2-15,52,34,24,39,30,22,100,86,54,30.17,30.02,9,2,13,0.15
2013-2-16,32,29,24,30,23,14,93,78,58,30.12,29.99,9,3,14,0.01
2013-2-17,31,22,17,17,13,7,92,68,37,30.35,30.08,12,5,18,0.00
2013-2-18,51,30,14,34,22,12,91,75,42,30.46,30.13,3,1,7,0.01
2013-2-19,47,38,32,42,29,16,94,72,37,30.13,29.91,10,3,22,0.17
2013-2-20,40,31,23,17,15,10,77,53,32,30.28,30.11,10,4,17,0.00
2013-2-21,49,32,17,33,21,14,89,66,32,30.35,30.18,2,0,4,0.05
2013-2-22,53,43,36,44,38,33,93,83,69,30.27,30.07,6,1,10,0.21
2013-2-23,57,45,38,47,41,36,94,86,65,30.10,29.85,3,0,7,0.03
2013-2-24,50,40,27,41,29,22,87,67,35,30.14,29.89,9,3,13,0.00
2013-2-25,51,36,24,32,26,21,92,70,44,30.18,30.06,6,1,9,0.00
2013-2-26,47,39,34,41,34,24,94,82,62,30.08,29.57,11,4,17,0.44
2013-2-27,40,38,36,38,34,32,94,86,78,29.85,29.68,7,2,13,0.03
2013-2-28,36,33,31,32,28,24,91,80,66,29.99,29.78,9,5,13,0.02